Flag for Switzerland Weather past 2 weeks in Bellinzona, Ticino, Switzerland

Now
60 °F

Cool.


Feels Like: 60 °F
Forecast: 56 / 76 °F
Wind: 1 mph from Northwest

Location: Locarno-Magadino

Current Time: Sep 18, 2014 at 8:33:52 PM

Latest Report: Sep 18, 2014 at 7:00 PM


Visibility: N/A

Pressure: 30.09 "Hg

Humidity: 96%

Dew point: 59 °F

Location of BellinzonaLocation

Historic Weather in Bellinzona — Graph

°F

Bellinzona temperature yesterday

Maximum temperature yesterday: 69 °F (at 4:00 PM)
Minimum temperature yesterday: 60 °F (at 12:00 AM)
Average temperature yesterday: 64 °F

Past Weeks' High & Low Weather Summary

 TemperatureHumidityPressure
High80 °F (Sep 8, 2:00 PM)100% (Sep 6, 3:00 AM)30.09 "Hg (Sep 6, 3:00 AM)
Low48 °F (Sep 13, 7:00 AM)29% (Sep 12, 1:00 PM)29.75 "Hg (Sep 11, 5:00 PM)
Average65 °F82%29.96 "Hg
* Reported Sep 3 7:00 PM — Sep 18 7:00 PM, Bellinzona, Weather by CustomWeather, © 2014

Note: Actual official high and low records may vary slightly from our data, if they occured in-between our weather recording intervals... More about our weather records

Advertising

Bellinzona weather history for previous 24 hours

 ConditionsComfort  
Time TempWeatherWind HumidityBarometerVisibility
7:00 PM
Sep 18
60 °FCool.1 mph96%30.09 "HgN/A
6:00 PM61 °FCool.1 mph90%30.09 "HgN/A
5:00 PM61 °FCool.2 mph90%30.09 "HgN/A
4:00 PM62 °FCool.1 mph85%30.09 "HgN/A
3:00 PM62 °FCool.5 mph91%30.09 "HgN/A
2:00 PM63 °FMild.6 mph94%30.09 "HgN/A
1:00 PM63 °FMild.2 mph92%30.09 "HgN/A
12:00 PM62 °FCool.2 mph95%30.08 "HgN/A
11:00 AM62 °FCool.2 mph93%30.08 "HgN/A
10:00 AM61 °FCool.1 mph95%30.07 "HgN/A
9:00 AM61 °FCool.2 mph95%30.05 "HgN/A
8:00 AM60 °FCool.2 mph98%30.04 "HgN/A
7:00 AM60 °FCool.2 mph97%30.03 "HgN/A
6:00 AM60 °FCool.3 mph94%30.03 "HgN/A
5:00 AM62 °FCool.1 mph98%30.02 "HgN/A
4:00 AM62 °FCool.2 mph98%30.03 "HgN/A
3:00 AM62 °FCool.2 mph96%30.04 "HgN/A
2:00 AM62 °FCool.No wind98%30.03 "HgN/A
1:00 AM62 °FCool.2 mph98%30.03 "HgN/A
12:00 AM62 °FCool.1 mph97%30.04 "HgN/A
11:00 PM
Sep 17
62 °FCool.2 mph98%30.03 "HgN/A
10:00 PM63 °FMild.1 mph96%30.04 "HgN/A
9:00 PM63 °FMild.2 mph94%30.02 "HgN/A
8:00 PM64 °FMild.1 mph99%30.01 "HgN/A
Weather by CustomWeather, © 2014

See weather overviewHow to use our weather pages